SCP
0 0 0 1 1 1 1 1 1 1 1 1 1 0 0 0 0 0 0 0 0 0 0 0 0 0 0 0 0 0 0 0 0 0 0 0 0 0 0 0 0 0 0
0 0 0 1 1 1 1 1 1 1 1 1 1 0 0 0 0 0 0 0 0 0 0 0 0 0 0 0 0 0 0 0 0 0 0 0 0 0 0 0 0 0 0
0 0 1 1 1 1 1 1 1 1 1 1 1 1 1 1 1 0 0 0 0 0 0 0 0 0 0 0 0 0 0 0 0 0 0 0 0 0 0 0 0 0 0
0 0 1 1 1 1 0 0 0 0 1 1 1 1 1 1 1 1 0 0 0 0 0 0 0 0 0 0 0 0 0 0 0 0 0 0 0 0 0 0 0 0 0
0 0 1 1 1 1 0 0 0 0 0 0 0 0 1 1 1 1 0 0 0 0 0 0 0 0 0 0 0 0 0 0 0 0 0 0 0 0 0 0 0 0 0
0 0 1 1 1 1 0 0 0 0 0 0 0 0 0 0 1 1 0 0 0 0 0 0 0 0 0 0 0 0 0 0 0 0 0 0 0 0 0 0 0 0 0
0 0 1 1 1 1 0 0 0 0 0 0 0 0 0 0 0 0 0 0 0 0 0 0 0 0 0 0 0 0 0 0 0 0 0 0 0 0 0 0 0 0 0
0 0 0 1 1 1 1 0 0 0 0 0 0 0 0 0 0 0 0 0 0 0 0 0 0 0 0 0 0 0 0 0 0 0 0 0 0 0 0 0 0 0 1
0 0 0 1 1 1 1 1 1 0 0 0 0 0 0 0 0 0 0 0 0 0 0 0 0 0 0 0 0 0 0 0 0 0 0 0 0 0 0 0 0 0 0
0 0 0 0 0 1 1 1 1 1 0 0 1 0 0 0 0 0 0 0 0 0 0 0 0 0 0 0 0 0 0 0 0 0 0 0 0 0 0 0 0 0 0
0 0 0 0 0 0 0 0 0 0 0 0 1 1 0 0 0 0 0 0 0 0 0 0 0 0 0 0 0 0 0 0 0 0 0 0 0 0 0 0 0 0 0
0 0 0 0 0 0 0 0 0 0 0 0 0 0 0 0 0 0 0 0 0 0 0 0 0 0 0 0 0 0 0 0 0 0 0 0 0 0 0 0 0 0 0
1 0 0 0 0 0 0 0 0 0 0 0 0 0 0 0 0 0 0 0 0 0 0 0 0 0 0 0 0 0 0 0 0 0 0 0 0 0 0 0 0 0 0
0 0 0 0 0 0 0 0 1 1 0 0 0 0 0 0 0 0 0 0 0 0 0 0 0 0 0 0 0 0 0 0 0 0 0 0 0 0 0 0 0 0 0
0 0 0 0 0 0 0 0 0 0 0 0 0 0 0 0 0 0 0 0 0 0 0 0 0 0 0 0 0 0 0 0 0 0 0 0 0 0 0 0 0 0 0
0 0 0 0 0 0 0 0 0 0 0 0 0 0 0 0 0 0 0 0 0 0 0 0 0 0 0 0 0 0 0 0 0 0 0 0 0 0 0 0 0 0 0
0 0 0 0 0 0 0 0 0 0 0 0 0 0 0 0 0 0 0 0 0 0 0 0 0 0 0 0 0 0 0 0 0 0 0 0 0 0 0 0 0 0 0
0 0 0 0 0 0 0 0 0 0 0 0 0 0 0 0 0 0 0 0 0 0 0 0 0 0 0 0 0 0 0 0 0 0 0 0 0 0 0 0 0 0 0
1 0 0 0 0 0 0 0 0 0 0 0 0 0 0 0 0 0 0 0 0 0 0 0 0 0 0 0 0 0 0 0 0 0 0 0 0 0 0 0 0 0 0
1 1 0 0 0 0 0 0 0 0 0 0 0 0 0 0 0 0 0 0 0 0 0 0 0 0 0 0 0 0 0 0 0 0 0 0 0 0 0 0 0 0 0
1 1 1 0 0 0 0 0 0 0 0 0 0 0 0 0 0 0 0 0 0 0 0 0 0 0 0 0 0 0 0 0 0 0 0 0 0 0 0 0 0 0 0
1 1 0 0 0 0 0 0 0 0 0 0 0 0 0 0 0 0 0 0 0 0 0 0 0 0 0 0 0 0 0 0 0 0 0 0 0 0 0 0 0 0 0
1 1 0 0 0 0 0 0 0 0 0 0 0 0 0 0 0 0 0 0 0 0 0 0 0 0 0 0 0 0 0 0 0 0 0 0 0 0 0 0 0 0 0
1 1 0 0 0 0 0 0 0 0 0 0 0 0 0 0 0 0 0 0 0 0 0 0 0 0 0 0 0 0 0 0 0 0 0 0 0 0 0 0 0 0 0
1 0 0 0 0 0 0 0 0 0 0 0 0 0 0 0 0 0 0 0 0 0 0 0 0 0 0 0 0 0 0 0 0 0 0 0 0 0 0 0 0 0 0
0 0 0 0 0 0 0 0 0 0 0 0 0 0 0 0 0 0 0 0 0 0 0 0 0 0 0 0 0 0 0 0 0 0 0 0 0 0 0 0 0 0 0
Wind_Speed
5 6 11 11 11 11 11 11 11 12 12 12 12 12 12 13 13 14 14 13 12 12 11 10 10 10 10 11 11 11 11 11 10 10 9 9 9 9 9 9 10 8 12
9 8 12 13 13 12 12 11 11 11 11 11 12 12 11 12 12 12 12 12 11 11 10 9 9 9 9 10 10 10 10 10 10 9 9 8 8 9 9 8 8 6 12
10 7 10 12 13 13 13 12 12 11 11 11 11 11 11 11 10 10 10 10 10 10 9 9 8 8 8 8 8 8 9 9 8 8 8 4 5 8 9 9 9 10 11
11 8 9 13 13 13 13 12 12 11 11 10 11 10 10 10 10 9 9 9 8 8 8 8 7 7 7 7 7 7 7 7 7 7 3 3 3 8 9 10 10 10 10
9 7 10 14 13 13 12 12 11 11 10 10 9 9 9 9 9 8 8 8 7 7 7 7 7 6 6 5 6 6 6 6 6 4 2 2 2 7 9 9 10 10 10
8 8 10 14 13 12 12 12 11 10 10 9 8 8 8 8 8 7 7 7 7 6 6 6 6 6 5 5 4 5 5 5 4 2 2 2 2 7 9 9 10 10 10
8 6 9 13 13 12 12 11 11 10 9 8 8 8 7 7 7 7 6 6 6 6 6 6 6 5 4 4 4 4 5 5 3 2 2 3 4 8 9 9 10 10 10
10 6 6 12 13 12 12 11 10 10 9 8 8 7 7 6 6 6 6 6 6 6 6 6 5 5 4 4 4 4 5 5 3 3 2 3 5 8 9 9 9 9 9
8 7 5 5 7 10 10 10 10 9 8 8 7 7 7 6 5 5 6 6 6 5 5 5 5 5 5 5 5 5 5 5 3 2 3 2 6 8 8 9 10 9 9
7 6 4 4 4 4 5 8 8 8 7 6 6 6 6 6 6 6 5 6 6 6 6 5 5 5 6 5 6 6 5 5 2 2 2 4 8 8 9 9 10 10 10
6 4 4 4 3 3 3 6 6 6 5 4 4 4 4 2 2 3 5 7 7 6 5 5 5 5 5 6 7 6 5 2 2 2 2 6 8 8 8 8 10 10 10
6 5 4 4 4 3 3 3 2 2 2 2 1 2 2 1 2 2 3 5 5 5 5 5 5 5 4 2 4 5 2 2 2 2 3 7 8 8 8 8 9 9 10
6 6 4 4 4 3 2 2 1 1 1 1 1 2 2 1 0 0 1 1 1 2 1 1 1 1 1 2 2 2 3 2 2 2 4 8 8 8 8 7 8 9 9
7 5 4 4 3 2 2 1 1 1 1 1 1 2 2 1 1 1 1 1 1 0 1 0 0 1 1 2 2 3 3 2 2 2 4 8 8 8 8 8 8 8 8
6 5 5 4 3 2 2 1 1 1 1 2 1 1 2 2 2 2 1 1 1 1 1 1 1 1 1 1 2 3 3 4 3 3 2 7 8 8 8 8 8 8 8
6 6 5 5 4 3 2 1 1 1 1 1 1 2 3 2 2 2 1 1 1 1 1 1 1 1 1 1 1 2 3 3 3 3 3 4 8 8 8 8 8 8 9
7 6 6 6 4 4 3 2 1 1 1 1 1 2 2 2 2 2 2 1 1 1 1 1 1 1 0 0 0 1 1 2 3 3 3 3 3 7 9 8 8 8 8
6 6 5 5 5 4 3 1 1 1 1 1 1 1 1 2 2 2 2 1 1 1 1 1 1 1 0 0 0 1 1 1 2 3 3 3 3 3 6 9 9 9 9
7 6 5 4 4 3 2 2 1 1 1 1 1 1 1 1 2 2 2 1 1 2 1 1 1 1 0 1 1 1 1 1 2 2 3 3 4 4 4 7 10 10 10
6 5 5 4 3 3 2 1 1 1 0 1 1 1 1 1 1 2 2 2 2 2 1 1 1 0 1 1 1 1 2 2 1 2 3 3 3 4 4 5 4 6 9
5 5 5 4 3 2 2 2 2 1 0 0 1 1 1 1 1 2 2 2 2 2 2 2 1 1 0 0 1 2 3 2 1 2 2 2 3 3 4 4 4 3 4
5 5 5 5 4 3 2 2 2 2 1 1 1 0 1 1 1 1 2 2 2 2 1 1 2 1 1 1 2 1 2 4 3 2 1 2 3 2 3 4 4 4 3
5 6 5 4 4 3 2 2 2 1 1 1 1 1 1 1 1 1 2 2 2 3 2 2 2 3 1 1 2 3 2 2 2 3 2 1 1 1 2 2 3 4 5
5 4 4 4 3 3 3 3 3 2 1 2 2 2 1 1 2 2 2 2 2 2 2 3 3 3 3 1 1 1 3 3 2 2 3 2 2 2 2 2 3 3 4
4 4 4 3 3 2 3 3 3 2 2 1 1 1 1 1 1 2 2 2 2 2 3 3 2 3 3 3 2 1 1 1 2 2 2 3 2 2 2 3 2 3 3
3 3 3 3 2 1 2 2 3 3 2 1 1 1 1 1 1 1 2 2 2 2 2 3 3 3 3 3 2 2 2 2 3 3 3 3 3 3 2 2 2 2 3
Wind_Direction
152 160 146 135 129 123 119 113 108 104 101 100 100 104 109 110 113 117 121 124 126 128 128 128 128 130 129 129 131 133 134 134 135 133 134 135 135 133 136 138 139 140 139
152 156 147 139 133 128 123 118 113 108 106 106 106 108 112 114 116 119 123 126 127 129 130 129 128 129 131 132 133 135 137 138 136 137 141 143 143 136 138 141 138 141 138
140 146 145 138 133 129 125 122 120 115 112 111 111 112 114 118 121 123 126 129 130 131 131 130 131 132 133 135 136 138 138 139 141 141 144 144 148 145 149 148 144 142 139
140 142 143 138 135 132 129 126 124 121 120 118 118 117 117 119 122 126 129 132 133 135 137 136 138 140 139 141 143 144 143 144 143 142 141 152 160 155 159 155 149 144 141
136 142 145 141 140 136 133 131 129 128 126 124 123 122 121 122 123 127 134 138 141 143 144 146 147 148 149 150 151 153 153 150 149 144 144 161 170 162 161 159 154 151 148
140 145 146 144 143 141 139 137 136 136 134 132 129 127 128 129 129 132 137 144 148 149 151 152 155 156 157 160 163 166 165 159 157 149 174 181 174 164 161 164 165 162 158
135 141 145 146 145 145 143 141 142 143 142 141 139 137 136 137 140 142 144 148 152 157 160 161 164 168 172 171 174 177 172 170 160 165 183 181 175 168 165 168 172 169 165
134 134 137 148 148 148 148 146 147 148 147 147 148 146 146 145 149 154 156 159 165 171 176 178 181 182 183 185 189 191 184 188 174 174 184 182 182 175 173 171 172 173 168
128 128 132 138 143 145 149 151 153 153 154 157 160 160 160 159 162 168 173 172 175 180 186 189 192 197 200 205 207 202 199 202 181 175 192 185 182 183 183 182 179 178 175
119 125 131 126 121 130 144 148 151 155 161 164 167 171 178 180 181 185 186 188 189 192 199 201 204 213 217 219 221 216 210 211 192 183 191 194 194 190 187 186 186 186 183
119 124 126 122 119 128 156 157 151 149 153 158 167 169 169 173 188 198 199 199 204 207 211 214 216 223 229 231 230 224 215 194 184 197 197 201 193 190 187 186 187 190 192
135 133 131 132 131 133 145 136 147 149 146 149 156 156 142 151 183 189 210 206 214 216 216 222 229 233 235 234 238 224 190 194 196 201 202 200 195 193 192 193 190 194 199
145 138 141 141 136 134 123 130 150 146 144 150 141 139 124 118 156 162 147 215 232 216 217 239 250 243 236 220 220 194 191 196 199 205 203 201 198 196 195 195 196 198 199
135 139 137 134 125 119 116 135 142 143 156 166 181 147 130 128 125 133 137 158 161 172 182 200 217 250 255 236 207 197 195 197 198 204 205 198 196 198 198 200 200 197 198
135 142 144 134 127 122 115 136 132 157 169 180 179 167 152 149 157 160 167 160 176 177 178 187 186 214 226 235 213 197 197 194 202 205 203 198 195 196 198 204 207 205 202
145 154 156 145 146 138 133 155 164 166 170 158 167 174 158 154 153 157 170 168 195 205 189 171 192 196 213 220 216 196 197 191 201 200 197 201 201 198 202 205 209 210 210
155 154 158 155 148 145 144 163 150 158 157 161 178 175 159 155 155 154 159 179 206 203 179 160 151 110 126 201 231 223 209 201 201 199 196 195 202 206 207 209 211 211 213
155 151 155 148 140 141 140 148 163 156 162 188 176 156 159 160 158 151 158 191 193 149 130 134 123 109 333 315 298 266 246 228 214 205 196 194 197 207 213 215 215 214 217
156 151 147 138 144 146 143 138 142 137 168 170 152 138 177 182 165 154 160 177 145 121 115 147 84 129 152 308 282 257 252 236 228 214 202 205 207 205 205 219 221 220 220
145 142 141 140 148 145 122 96 86 83 95 114 139 169 204 203 163 145 148 155 143 130 129 152 160 174 192 238 297 314 294 275 233 214 215 214 213 212 210 215 218 224 221
136 133 136 143 155 144 134 140 146 137 114 115 208 196 195 207 170 150 157 155 155 159 181 184 161 150 254 109 61 347 327 312 274 243 225 220 225 221 206 209 210 211 222
151 149 154 159 162 164 169 172 165 157 191 209 243 248 206 192 200 183 163 169 171 170 183 191 161 149 226 151 132 89 349 342 330 301 265 227 235 228 217 219 209 208 211
163 167 167 169 166 164 161 131 106 83 56 6 303 282 251 209 191 190 179 176 177 172 187 207 188 173 201 250 158 150 154 232 306 316 295 269 253 247 241 230 215 210 207
179 173 168 173 169 165 152 143 150 154 185 221 225 241 260 241 214 192 184 181 189 187 194 207 193 184 174 205 232 185 179 173 174 298 315 307 294 272 257 248 233 222 215
171 162 165 165 165 165 155 157 155 162 199 212 208 245 264 263 235 205 187 185 197 200 203 203 189 185 180 185 192 192 182 179 182 180 272 304 314 284 259 247 238 231 222
150 146 148 145 161 163 141 147 158 171 187 183 209 237 258 259 251 223 199 203 210 207 215 212 203 197 197 190 191 185 177 181 195 187 216 255 275 281 275 257 238 235 226